Location: Newark
(25.4800°N, 85.7200°E)
Time: 06:55:18
(UTC+00:00)

Tiros 1 despin weight - All Passes

Search period start: 22 August 2019 00:00
Search period end: 01 September 2019 00:00
Orbit: 594 x 642 km, 48.2° (Epoch: 21 August)

Date Brightness Start Highest point End Pass type
(mag) Time Alt. Az. Time Alt. Az. Time Alt. Az.
22 Aug - 00:38:13 10° NW 00:42:43 50° NE 00:47:15 10° ESE daylight
22 Aug - 02:20:49 10° W 02:23:59 18° SW 02:27:11 10° S daylight
22 Aug - 14:43:16 10° SE 14:43:37 10° SE 14:43:59 10° ESE night (unlit)
22 Aug - 16:20:17 10° SW 16:24:41 77° NW 16:29:08 10° NE night (unlit)
22 Aug - 18:04:58 10° NW 18:06:47 12° NNW 18:08:37 10° N night (unlit)
22 Aug - 23:14:24 10° N 23:17:27 17° NNE 23:20:30 10° ENE visible
23 Aug - 00:54:43 10° NW 00:59:19 71° SW 01:03:58 10° SE daylight
23 Aug - 14:56:20 10° S 14:59:58 25° SE 15:03:38 10° ENE night (unlit)
23 Aug - 16:37:22 10° WSW 16:41:22 33° NW 16:45:25 10° NNE night (unlit)
23 Aug - 23:30:11 10° NNW 23:34:20 32° NE 23:38:30 10° ESE visible
24 Aug - 01:11:47 10° WNW 01:15:49 29° SW 01:19:51 10° S daylight
24 Aug - 15:12:06 10° SW 15:16:26 64° SE 15:20:48 10° NE night (unlit)
24 Aug - 16:55:18 10° WNW 16:58:15 17° NNW 17:01:13 10° N night (unlit)
24 Aug - 22:07:03 10° N 22:08:53 12° NNE 22:10:44 10° NE visible
24 Aug - 23:46:26 10° NW 23:51:02 71° NE 23:55:39 10° SE daylight
25 Aug - 01:30:16 10° WSW 01:32:11 12° SW 01:34:07 10° SSW daylight
25 Aug - 13:49:14 10° SSE 13:51:49 15° SE 13:54:25 10° E visible
25 Aug - 15:28:44 10° WSW 15:33:01 53° NW 15:37:21 10° NE visible
25 Aug - 22:22:18 10° NNW 22:25:53 22° NE 22:29:30 10° E visible
26 Aug - 00:03:08 10° WNW 00:07:35 48° SW 00:12:03 10° SSE daylight
26 Aug - 14:04:10 10° SSW 14:08:13 37° SE 14:12:18 10° ENE visible
26 Aug - 15:46:09 10° W 15:49:47 25° NW 15:53:27 10° NNE visible
26 Aug - 22:38:18 10° NNW 22:42:41 44° NE 22:47:07 10° ESE visible
27 Aug - 00:20:36 10° W 00:24:01 21° SW 00:27:27 10° S daylight
27 Aug - 14:20:20 10° SW 14:24:44 87° NW 14:29:09 10° NE visible
27 Aug - 16:04:36 10° WNW 16:06:45 13° NNW 16:08:53 10° N visible
27 Aug - 21:14:40 10° N 21:17:23 15° NNE 21:20:06 10° ENE visible
27 Aug - 22:54:44 10° NW 22:59:18 81° SW 23:03:57 10° SE visible
28 Aug - 12:56:37 10° S 13:00:03 22° SE 13:03:29 10° ENE visible
28 Aug - 14:37:18 10° WSW 14:41:23 37° NW 14:45:30 10° NNE visible
28 Aug - 21:30:19 10° NNW 21:34:18 29° NE 21:38:17 10° E visible
28 Aug - 23:11:42 10° WNW 23:15:49 33° SW 23:19:58 10° SSE visible
29 Aug - 13:12:12 10° SSW 13:16:29 55° SE 13:20:48 10° NE visible
29 Aug - 14:55:06 10° W 14:58:14 19° NW 15:01:23 10° NNE visible
29 Aug - 20:07:38 10° NNE 20:08:48 11° NNE 20:09:59 10° NE night (unlit)
29 Aug - 21:46:30 10° NW 21:51:00 62° NE 21:55:34 10° SE visible
29 Aug - 23:29:48 10° W 23:32:13 14° SW 23:34:37 10° SSW visible
30 Aug - 11:49:45 10° SSE 11:51:54 13° SE 11:54:03 10° E daylight
30 Aug - 13:28:43 10° WSW 13:33:04 60° NW 13:37:25 10° NE visible
30 Aug - 15:14:49 10° NNW 15:15:17 10° NNW 15:15:44 10° NNW visible
30 Aug - 20:22:30 10° NNW 20:25:50 20° NE 20:29:11 10° E night (unlit)
30 Aug - 22:03:08 10° NW 22:07:35 55° SW 22:12:05 10° SSE visible
31 Aug - 12:04:21 10° SSW 12:08:18 32° SE 12:12:14 10° ENE daylight
31 Aug - 13:46:01 10° W 13:49:47 27° NW 13:53:34 10° NNE visible
31 Aug - 20:38:25 10° NNW 20:42:39 39° NE 20:46:56 10° ESE night (unlit)
31 Aug - 22:20:26 10° WNW 22:24:02 23° SW 22:27:40 10° S visible
